Wind_Speed
7 3 1 1 3 10 11 12 12 11 7 6 6 9 8 6 6 5 4 2 4 4 5 6 4 6 5 5 6 7 5 6 6 1 2 4 5 4 3 4 5 1 1
9 6 5 3 3 7 11 17 15 14 13 11 10 9 8 7 7 7 7 6 5 6 8 9 9 6 7 6 5 2 1 2 4 1 3 3 2 4 4 6 2 3 6
6 7 7 11 9 11 8 9 8 9 11 13 12 8 5 6 8 9 9 9 9 8 9 10 10 10 10 10 10 9 8 8 6 6 6 8 7 7 6 5 6 5 8
7 8 6 5 8 8 9 11 9 8 7 9 10 11 9 8 7 6 9 10 9 10 11 13 13 13 13 14 14 15 13 14 13 11 12 12 12 9 9 8 6 5 6
8 7 9 7 2 7 8 7 10 12 10 11 8 6 6 5 8 10 8 8 11 12 15 16 15 16 17 17 17 14 15 16 17 18 17 16 17 15 13 13 9 8 8
8 6 4 2 5 5 11 9 10 12 13 12 9 8 7 6 3 1 5 6 8 10 13 18 21 18 17 19 18 19 17 18 19 18 17 17 19 18 19 16 14 13 10
6 8 3 2 6 5 6 13 16 19 15 8 6 3 3 2 2 4 5 8 11 11 11 12 12 15 18 19 21 20 20 19 20 19 19 20 19 18 19 19 15 13 13
8 2 2 7 3 9 11 15 18 17 33 18 9 11 11 10 10 11 12 13 17 18 15 14 16 16 16 16 21 22 24 24 22 22 20 20 21 21 23 22 21 19 17
3 6 8 9 10 14 12 11 13 15 15 16 17 16 14 16 18 19 22 21 27 28 21 17 19 21 21 20 20 23 25 26 26 25 23 23 23 21 23 22 24 22 20
13 12 12 11 10 13 15 15 17 20 21 21 22 21 21 22 22 24 26 28 31 32 29 27 29 28 26 26 25 24 27 26 26 26 26 25 26 25 25 23 22 22 22
11 12 14 10 11 12 14 15 16 15 14 14 15 16 16 17 18 20 21 23 26 28 31 33 34 35 33 31 31 25 27 26 29 29 27 26 26 27 29 27 25 23 21
13 15 14 16 16 15 13 13 14 16 16 16 16 16 18 19 20 21 22 24 26 28 27 29 31 32 37 36 33 32 33 31 31 30 25 26 26 25 28 28 28 29 26
18 19 22 20 19 18 16 16 17 17 18 20 22 22 23 25 26 27 28 29 30 31 33 33 33 32 32 33 33 34 36 36 38 35 32 34 34 32 31 30 30 29 27
22 20 22 21 19 17 19 21 22 22 23 24 25 27 28 29 30 31 32 33 34 35 35 36 35 34 32 33 34 36 39 41 38 39 39 37 36 35 35 33 32 32 31
22 21 23 21 20 18 20 21 22 23 24 26 27 29 31 32 33 33 34 34 35 38 38 37 36 34 34 34 34 36 38 40 42 46 45 45 44 42 41 39 36 34 34
24 24 21 20 19 18 20 21 23 24 26 28 29 31 34 35 36 37 37 37 37 37 39 39 38 37 36 36 37 37 38 39 37 36 38 38 39 41 43 43 41 39 36
20 21 20 18 19 21 23 24 26 28 31 32 34 34 34 34 35 37 38 39 40 41 40 41 41 40 40 38 37 38 39 40 41 41 40 39 39 41 43 42 40 41 41
21 20 18 18 20 24 26 28 31 32 31 29 29 29 31 32 33 37 40 41 41 41 42 42 42 41 42 41 41 39 38 40 41 44 45 46 46 46 44 44 42 40 41
21 19 19 21 24 28 31 32 29 28 28 30 31 33 33 36 38 41 40 40 41 42 40 39 40 40 40 41 42 42 41 38 38 42 44 43 44 45 46 44 44 43 40
19 19 20 25 28 32 31 28 28 29 29 31 32 35 37 38 40 40 39 39 40 42 42 40 39 40 38 40 43 43 38 37 38 39 41 43 45 45 45 45 44 42 44
18 22 25 28 32 31 30 30 31 31 34 35 36 37 38 38 40 40 39 38 39 40 40 38 39 39 37 41 41 42 39 38 39 39 40 42 43 44 44 44 43 42 44
21 25 28 32 31 31 31 32 34 35 36 37 37 37 38 37 38 38 38 38 37 38 38 39 39 38 36 38 41 40 41 39 39 38 37 41 43 43 43 44 45 44 44
25 29 32 31 31 32 33 36 36 36 37 37 37 37 37 37 37 38 38 37 37 37 34 32 30 30 31 33 33 36 37 40 39 39 42 42 42 43 43 44 45 44 43
28 30 29 29 32 34 35 35 36 36 37 37 38 37 37 37 38 39 37 36 36 33 30 29 28 28 28 28 27 28 33 37 39 39 39 38 40 40 41 41 45 47 47
28 29 30 30 32 33 35 35 35 36 36 36 37 36 36 36 37 37 36 34 31 29 28 27 26 26 24 23 25 26 30 32 32 32 33 34 34 36 39 41 44 48 52
27 28 30 32 34 35 35 35 35 35 35 36 36 36 35 35 36 37 35 33 30 28 26 25 24 23 23 23 24 26 29 30 31 30 30 33 35 37 39 41 43 47 50
Wind_Direction
180 0 351 197 104 114 93 126 137 139 146 174 196 217 213 219 190 206 245 258 282 296 307 303 324 316 333 358 40 59 112 102 100 110 283 352 29 204 239 252 264 284 284
87 75 95 98 82 87 93 128 134 135 162 171 186 198 204 203 217 224 243 268 265 277 284 287 287 277 290 303 306 314 258 214 237 287 227 293 303 299 326 356 77 202 25
138 135 104 106 94 100 94 110 114 133 153 174 182 187 206 220 237 241 252 261 265 259 263 264 262 268 265 266 267 268 263 262 259 267 268 259 266 293 320 351 14 28 6
172 176 134 132 121 123 133 129 124 127 142 164 198 210 193 209 233 251 259 270 270 276 272 264 266 269 267 263 258 263 259 266 264 259 264 273 280 286 295 303 325 293 330
184 195 211 180 139 315 177 219 188 170 165 151 168 154 152 165 191 210 231 256 270 273 275 272 268 267 270 269 271 264 264 265 263 266 266 270 278 274 271 279 283 293 295
174 191 194 75 157 294 290 296 244 258 201 178 179 163 140 120 114 211 237 291 287 276 280 271 264 261 259 267 268 269 264 268 269 265 265 268 274 274 272 266 270 276 284
153 160 163 56 199 303 334 275 299 297 278 191 200 220 108 105 354 272 280 292 291 287 282 288 291 280 276 269 262 265 268 267 267 266 264 268 272 277 275 276 271 259 266
138 154 229 263 212 310 318 314 306 301 306 323 3 348 340 303 276 273 271 272 271 266 266 273 278 281 280 280 263 270 263 261 263 266 261 263 266 268 271 273 275 271 265
210 255 268 270 291 298 302 295 291 298 319 310 304 296 286 278 282 280 282 280 277 279 264 262 275 276 276 275 271 267 265 263 263 265 266 265 263 261 263 269 272 267 266
221 237 239 258 281 296 299 295 293 292 288 283 280 280 278 278 279 275 276 277 280 288 292 288 278 264 269 273 272 273 276 275 270 269 264 265 268 269 269 268 270 271 261
234 266 266 276 288 292 298 304 300 294 286 281 283 290 294 296 296 292 286 281 282 283 284 279 277 278 283 280 275 272 277 271 271 263 265 270 270 270 276 269 271 264 273
257 265 283 289 286 284 289 295 299 304 304 304 303 301 302 300 298 294 292 290 289 288 285 281 279 276 272 272 273 275 263 267 273 278 270 271 272 270 272 274 274 280 277
266 279 287 286 283 291 294 293 295 297 298 301 303 302 301 299 297 295 293 291 290 287 288 288 284 278 273 273 273 269 267 264 271 270 272 270 272 276 276 273 275 276 273
261 274 281 280 278 283 289 294 296 298 299 300 300 300 299 296 294 292 291 290 288 285 286 285 283 280 278 275 271 271 261 271 263 267 270 271 271 271 272 274 274 273 274
277 277 274 273 277 281 285 289 292 295 297 298 298 297 294 292 291 289 287 286 286 285 285 285 282 278 275 274 272 267 268 264 263 263 267 270 270 269 270 272 272 274 272
278 282 277 268 270 279 282 285 289 292 293 293 292 292 293 293 292 291 290 290 289 288 286 285 282 277 275 273 270 268 266 265 266 265 265 267 268 267 265 267 268 270 268
276 274 272 277 283 284 286 289 291 293 293 294 295 297 297 298 299 296 294 292 290 289 286 284 282 278 275 275 271 265 263 265 264 264 267 268 268 268 269 269 266 266 269
278 278 282 284 289 289 291 294 296 297 297 298 297 299 300 297 299 300 296 292 290 287 283 281 280 277 275 275 274 271 265 263 266 265 265 267 270 269 268 268 267 263 260
276 280 289 292 290 294 296 298 299 299 299 300 301 302 303 304 305 306 301 295 291 285 282 280 279 276 273 274 273 271 270 269 267 262 261 263 266 266 267 268 267 265 263
278 287 290 292 297 297 294 294 297 297 297 299 301 304 304 307 308 305 303 297 293 286 282 281 279 276 275 273 270 272 273 269 268 268 265 263 264 264 265 266 266 262 262
286 289 292 297 298 294 292 291 296 299 302 302 302 303 304 308 308 307 307 304 296 290 284 280 277 275 276 271 270 268 270 265 263 265 264 263 264 262 262 262 262 262 259
287 291 298 297 293 292 295 297 299 299 300 300 300 302 304 307 309 308 309 307 300 294 288 283 279 278 277 270 269 268 265 265 263 264 266 267 266 264 261 262 263 259 256
293 295 294 292 292 294 297 297 298 299 301 301 302 303 305 309 309 308 309 305 302 298 294 290 285 279 278 272 272 270 267 264 266 266 266 266 266 264 262 260 260 260 256
292 291 294 295 297 298 300 301 301 303 302 302 303 305 307 308 307 307 308 304 300 300 297 292 290 286 280 278 277 273 270 264 262 263 263 262 260 261 261 260 259 258 258
296 297 298 300 302 302 302 303 303 303 303 302 305 305 306 305 303 304 307 306 304 298 294 294 291 288 287 283 280 273 268 268 266 266 265 266 266 265 264 263 261 261 259
292 296 300 303 304 304 303 303 302 303 305 304 305 304 304 303 302 303 305 305 304 300 296 296 294 292 290 287 281 276 272 270 271 270 270 270 271 272 270 267 265 261 259
Height
5912 5913 5911 5907 5904 5901 5899 5900 5902 5904 5908 5910 5912 5914 5914 5916 5918 5919 5919 5919 5919 5920 5921 5921 5921 5920 5919 5917 5916 5917 5916 5917 5917 5917 5916 5916 5916 5915 5916 5916 5915 5914 5913
5913 5913 5911 5909 5909 5905 5901 5901 5904 5905 5906 5907 5910 5913 5913 5913 5915 5917 5919 5920 5919 5919 5919 5919 5919 5919 5918 5917 5918 5918 5917 5917 5917 5917 5916 5914 5915 5915 5915 5915 5915 5915 5912
5914 5913 5909 5906 5908 5907 5906 5905 5905 5906 5905 5907 5907 5909 5911 5912 5914 5915 5915 5916 5917 5917 5917 5917 5917 5916 5916 5916 5916 5917 5917 5916 5916 5915 5915 5915 5914 5913 5914 5914 5913 5913 5913
5914 5912 5909 5909 5906 5907 5905 5905 5906 5905 5907 5906 5907 5906 5906 5907 5910 5911 5912 5912 5913 5914 5914 5914 5913 5913 5913 5913 5913 5913 5914 5914 5914 5914 5913 5912 5912 5911 5912 5912 5913 5913 5913
5909 5912 5911 5908 5906 5906 5906 5904 5902 5902 5905 5904 5906 5904 5904 5906 5906 5907 5909 5910 5909 5910 5909 5909 5910 5910 5910 5909 5909 5910 5910 5910 5911 5911 5910 5909 5909 5909 5909 5909 5911 5911 5910
5907 5910 5910 5907 5906 5909 5906 5906 5909 5904 5900 5903 5904 5904 5904 5905 5906 5906 5906 5908 5907 5907 5907 5906 5906 5907 5906 5905 5904 5904 5905 5906 5906 5906 5906 5905 5905 5905 5904 5906 5908 5908 5907
5908 5908 5910 5906 5908 5908 5907 5907 5906 5901 5895 5893 5898 5900 5901 5903 5904 5906 5904 5904 5905 5903 5901 5902 5903 5902 5901 5901 5900 5899 5898 5899 5900 5901 5901 5901 5900 5900 5900 5901 5903 5905 5904
5905 5907 5906 5905 5904 5906 5904 5903 5903 5902 5892 5890 5893 5895 5897 5896 5901 5903 5901 5901 5899 5896 5894 5895 5895 5895 5896 5895 5895 5894 5894 5893 5893 5894 5893 5895 5896 5896 5896 5895 5896 5899 5900
5903 5904 5903 5905 5903 5903 5903 5903 5901 5902 5900 5896 5896 5897 5898 5897 5896 5893 5893 5891 5883 5881 5888 5889 5888 5888 5888 5890 5890 5890 5888 5888 5887 5887 5888 5889 5889 5889 5890 5891 5890 5892 5894
5902 5903 5902 5902 5902 5902 5902 5901 5899 5898 5899 5898 5896 5894 5893 5893 5891 5891 5890 5888 5884 5881 5881 5882 5876 5877 5879 5882 5883 5883 5883 5885 5883 5883 5883 5882 5882 5883 5882 5883 5883 5883 5886
5897 5898 5897 5898 5899 5899 5897 5897 5896 5896 5895 5893 5892 5890 5888 5887 5886 5885 5883 5882 5880 5878 5876 5876 5875 5874 5874 5874 5877 5876 5876 5875 5876 5876 5877 5877 5876 5876 5876 5875 5875 5875 5876
5894 5892 5893 5893 5893 5893 5892 5892 5891 5890 5888 5888 5888 5886 5884 5883 5882 5881 5879 5877 5874 5873 5872 5869 5868 5867 5868 5868 5868 5868 5867 5868 5869 5868 5869 5869 5870 5870 5869 5868 5868 5867 5867
5891 5889 5888 5888 5888 5886 5885 5885 5885 5885 5884 5883 5881 5879 5877 5877 5875 5874 5872 5870 5868 5867 5865 5862 5860 5859 5860 5859 5860 5860 5859 5858 5859 5860 5860 5860 5862 5863 5862 5862 5860 5860 5860
5889 5887 5885 5885 5884 5881 5880 5879 5878 5877 5876 5875 5874 5873 5871 5870 5868 5866 5864 5861 5860 5859 5857 5854 5852 5851 5850 5849 5849 5849 5849 5849 5849 5850 5850 5851 5851 5851 5851 5853 5854 5852 5852
5885 5884 5883 5882 5880 5878 5877 5877 5875 5873 5871 5869 5868 5866 5865 5863 5861 5858 5856 5854 5851 5849 5847 5845 5843 5842 5841 5840 5840 5839 5839 5839 5839 5840 5841 5841 5841 5841 5842 5841 5843 5844 5845
5879 5878 5878 5877 5874 5873 5874 5873 5871 5868 5866 5864 5862 5859 5856 5853 5850 5848 5845 5843 5841 5839 5836 5835 5833 5831 5830 5830 5829 5828 5828 5829 5829 5830 5830 5830 5830 5830 5830 5830 5832 5834 5836
5874 5873 5871 5869 5868 5867 5866 5864 5862 5860 5858 5855 5852 5849 5846 5843 5839 5836 5834 5831 5829 5827 5825 5823 5821 5820 5819 5818 5818 5818 5818 5818 5818 5820 5820 5819 5819 5819 5819 5820 5822 5824 5824
5867 5865 5863 5862 5862 5861 5859 5856 5854 5850 5848 5845 5843 5840 5837 5834 5831 5827 5823 5819 5817 5815 5813 5811 5809 5808 5806 5805 5805 5805 5806 5807 5807 5807 5808 5809 5809 5807 5808 5809 5809 5812 5815
5859 5856 5855 5856 5855 5855 5852 5848 5845 5843 5840 5837 5834 5831 5828 5824 5820 5815 5811 5807 5805 5802 5800 5798 5796 5795 5794 5793 5792 5792 5793 5795 5795 5795 5795 5796 5796 5795 5796 5799 5800 5801 5803
5853 5851 5850 5851 5848 5847 5844 5841 5838 5835 5832 5829 5826 5822 5818 5814 5809 5805 5800 5796 5792 5789 5787 5785 5784 5782 5782 5780 5779 5780 5782 5782 5782 5782 5782 5783 5783 5783 5784 5786 5787 5790 5789
5845 5845 5845 5843 5840 5839 5836 5833 5830 5826 5823 5819 5815 5812 5808 5803 5798 5793 5789 5785 5781 5777 5775 5773 5770 5770 5769 5767 5766 5767 5768 5768 5768 5768 5768 5769 5770 5771 5772 5773 5774 5777 5779
5840 5838 5836 5835 5834 5831 5827 5823 5820 5817 5814 5810 5806 5802 5798 5793 5788 5783 5778 5774 5770 5766 5763 5760 5757 5756 5755 5754 5753 5754 5754 5755 5756 5756 5756 5756 5757 5758 5759 5761 5761 5763 5765
5834 5832 5831 5829 5825 5822 5818 5814 5811 5807 5803 5799 5796 5792 5787 5782 5777 5773 5768 5764 5760 5756 5752 5749 5746 5744 5743 5742 5742 5742 5741 5742 5743 5743 5743 5743 5744 5745 5746 5747 5749 5750 5751
5827 5825 5823 5820 5816 5812 5808 5805 5800 5796 5793 5789 5785 5781 5777 5772 5768 5763 5759 5756 5751 5747 5743 5740 5737 5735 5733 5731 5730 5730 5730 5730 5729 5729 5729 5730 5731 5732 5733 5734 5735 5736 5738
5817 5815 5813 5810 5806 5803 5798 5794 5791 5787 5783 5780 5776 5772 5768 5763 5759 5755 5751 5746 5743 5738 5734 5732 5729 5726 5724 5722 5720 5720 5719 5718 5718 5718 5718 5719 5719 5720 5720 5721 5721 5721 5722
5810 5808 5804 5801 5797 5793 5789 5785 5781 5778 5774 5770 5766 5762 5759 5754 5750 5745 5741 5738 5734 5730 5725 5722 5720 5717 5715 5712 5711 5711 5711 5710 5710 5709 5709 5708 5708 5708 5707 5707 5707 5707 5707